Regional Weather Roundup
Issued by NWS

Home | Current Version | Previous Version | Graphics & Text | Print | Product List | Glossary On
Versions: 1 2 3 4 5 6 7 8 9 10 11 12 13 14 15 16 17 18 19 20 21 22 23 24 25 26 27 28 29 30 31 32 33 34 35 36 37 38 39 40 41 42 43 44 45 46 47 48 49 50
000
ASUS45 KTFX 200904
RWRMT
MONTANA HOURLY WEATHER ROUNDUP
NATIONAL WEATHER SERVICE GREAT FALLS MT
304 AM MDT SAT SEP 20 2014

NOTE: "FAIR" INDICATES FEW OR NO CLOUDS BELOW 12000 FEET WITH NO
SIGNIFICANT WEATHER AND/OR OBSTRUCTIONS TO VISIBILITY.

* THESE STATIONS ARE NOT UNDER NWS QUALITY CONTROL. THEY DO NOT
   REPORT WEATHER SUCH AS PRECIPITATION OR FOG.

MTZ001>007-043-201000-
WEST OF THE DIVIDE
CITY           SKY/WX    TMP DP  RH WIND       PRES   REMARKS
KALISPELL      MOCLDY    45  43  93 CALM      30.14S
MISSOULA       MOCLDY    48  43  83 N3        30.19S
BUTTE          PTCLDY    45  37  74 N5        30.26R
MULLAN PASS    PTCLDY    50  43  77 W3        30.26S
* ESSEX        N/A       47  45  93 N/A        N/A
* LINCOLN      N/A       46  40  80 NE2        N/A
* LOOKOUT PASS N/A       47  43  86 S2         N/A
* POLSON       N/A       53  45  74 SE2        N/A
* RONAN APT    MOCLDY    46  43  89 N/A        N/A
* SEELEY LAKE  N/A       39  37  93 N2         N/A
* THOMP F APT  PTCLDY    52  38  59 NE4G10     N/A
$$

MTZ008-052>055-201000-
SOUTHWEST MONTANA
CITY           SKY/WX    TMP DP  RH WIND       PRES   REMARKS
BOZEMAN        PTCLDY    45  41  86 SE5       30.20R
DILLON         CLEAR     52  39  61 CALM      30.22R
W YELLOWSTONE  PTCLDY    37  37 100 CALM      30.29R
* THREE FORKS  PTCLDY    45  27  49 N/A        N/A
* BOULDER HILL N/A       49  35  59 SW3        N/A
* MONIDA PASS  N/A       47  39  74 NW2        N/A
* RAYNOLDS PAS N/A       44  28  53 S4G9       N/A
* WHITEHALL    N/A       50  40  69 NW3        N/A
* WISE RIVER   N/A       44  38  80 SW3G8      N/A
$$

MTZ009>010-012-014-046-048-049-054-201000-
EAST SLOPES AND CENTRAL MONTANA
CITY           SKY/WX    TMP DP  RH WIND       PRES   REMARKS
CUT BANK       PTCLDY    52  41  66 W9        30.09R
GREAT FALLS    PTCLDY    52  43  72 SW9       30.10R
HELENA         PTCLDY    59  43  56 W7        30.15S
MALMSTROM AFB  PTCLDY    52  43  72 SW9       30.12R
* CONRAD       CLEAR     52  45  77 N/A        N/A
* EAST GLACIER N/A       55  40  57 NW4G11     N/A
* MONARCH      N/A       52  36  55 SW7        N/A
* PENDROY      N/A       55  42  62 NW12G18    N/A
* ROGERS PASS  N/A       51  41  69 SE5G11     N/A
* SAINT MARY   N/A       58  41  53 S8G21      N/A
* SWEET GRASS  N/A       55  39  55 NW17G23    N/A
$$

MTZ011-013-016-021-035-040-045-047-050-051-201000-
NORTH CENTRAL MONTANA
CITY           SKY/WX    TMP DP  RH WIND       PRES   REMARKS
HAVRE          CLEAR     52  43  72 SW12      30.00R
LEWISTOWN      MOCLDY    48  39  71 W8        30.10R
* CHESTER      N/A       50  40  69 NW3G8      N/A
* DENTON       N/A       49  43  80 SW8        N/A
* GEYSER       N/A       52  42  69 NW4        N/A
* JUDITH GAP   N/A       52  40  64 SE4        N/A
* LOMA         N/A       53  42  66 W5         N/A
$$

MTZ017>020-022>027-061-062-201000-
NORTHEAST MONTANA
CITY           SKY/WX    TMP DP  RH WIND       PRES   REMARKS
GLASGOW        CLEAR     55  46  72 W10       29.89R
JORDAN         CLEAR     54  46  74 W9        29.97R
SIDNEY         CLEAR     52  48  86 S7        29.89S
WOLF POINT     PTCLDY    50  48  93 SW5       29.88R
* BEAVER HILL  N/A       53  46  77 S12        N/A
* CIRCLE       N/A       52  48  86 W3         N/A
* LINDSAY DVD  N/A       57  47  69 W8         N/A
$$

MTZ028>042-056>058-201000-
SOUTHCENTRAL AND SOUTHEAST MONTANA
CITY           SKY/WX    TMP DP  RH WIND       PRES   REMARKS
BAKER          PTCLDY    55  46  72 W6        29.96F
BILLINGS       CLEAR     61  41  48 W9        30.09R
LIVINGSTON     CLEAR     48  41  77 W9        30.17S
MILES CITY     CLEAR     57  45  64 SW3       29.98R
* LAUREL APT   CLEAR     52  41  66 N/A        N/A
* ROUNDUP APT  PTCLDY    52  43  72 S10        N/A
* ALZADA       N/A       55  48  77 W6         N/A
* HYSHAM       N/A       56  42  60 W3         N/A
* LAME DEER    N/A       58  45  62 W8         N/A
* REED POINT   N/A       52  43  72 SE3        N/A
* ROSCOE HILL  N/A       55  36  49 S5         N/A
$$

REGIONAL REPORTS...DAKOTAS
CITY           SKY/WX    TMP DP  RH WIND       PRES   REMARKS
WILLISTON      MOCLDY    50  46  86 SW3       29.85F
DICKINSON      CLEAR     52  45  77 W8        29.89R
BEACH          N/A       52  48  86 SW9       29.93S
CROSBY         CLEAR     50  50 100 SW10      29.82F
TIOGA          CLEAR     45  45 100 SW5       29.87F
WATFORD CITY   CLEAR     46  45  96 SW6       29.85S
BISMARCK       MOCLDY    55  52  90 W3        29.86S
GRAND FORKS    CLEAR     52  48  86 W3        29.74R
FARGO          CLEAR     55  54  96 NW8       29.76R
BUFFALO SD     PTCLDY    54  46  74 W12       29.92R
RAPID CITY     MOCLDY    57  46  67 NW7       30.00F
$$

REGIONAL REPORTS...WYOMING/IDAHO/WASHINGTON
CITY           SKY/WX    TMP DP  RH WIND       PRES   REMARKS
GILLETTE       CLEAR     55  45  69 SW8       30.08F
SHERIDAN       FAIR      54  45  72 CALM      30.09R
CODY           CLEAR    N/A N/A N/A N/A        N/A
YELLOWSTONE LA PTCLDY    37  36  96 CALM      30.36R
SALMON         PTCLDY    46  43  89 CALM      30.19R
MULLAN PASS    PTCLDY    50  43  77 W3        30.26S
SAND POINT     PTCLDY    46  46 100 CALM      30.13R
SPOKANE        PTCLDY    57  45  64 S8        30.12R
$$

REGIONAL REPORTS...SASKATCHEWAN
CITY           SKY/WX    TMP DP  RH WIND       PRES   REMARKS
SWIFT CURRENT  LGT RAIN  52  48  86 N9        29.93R

$$



USA.gov is the U.S. government's official web portal to all federal, state and local government web resources and services.